www.pogodaiklimat.ru

Погода и климат >> Архив погоды >> Россия >> Якутия >> Эйк


ПОГОДА в Эйке

  • Прогноз погоды в Эйке
  • Монитор погоды в Эйке

АРХИВ ПОГОДЫ в Эйке

Время (UTC), дата Ветер
(напр.,м/с)
 
Видим.   Явления Облачность Т
(С)
Тd
(С)
f
(%)
Тe
(С)
Тes
(С)
Комфортность P
(гПа)
Po
(гПа)
Тmin
(С)
Tmax
(С)
R
(мм)
R24
(мм)
S
(см)
12 16.07 З 1 50 км 8/0
[Ac trans]
+24.0 +13.6 52 +26 +27 жарко 1009.4 975.0 +25.6
15 16.07 ЮЗ 3 50 км 10/10 600 м
[Cb cap]
+21.6 +14.5 64 +25 +25 комфорт 1008.1 973.5
18 16.07 ЮЗ 3 50 км {ливн. осадки} 10/10 600 м
[Cb cap]
+18.1 +14.5 79 +18 +18 1008.3 972.3
21 16.07 З 4 10 км слаб. дождь 10/10 600 м
[Frnb Ns]
+17.0 +13.5 80 +17 +17 1006.6 971.4
00 17.07 З 5 50 км в посл. час дождь 10/10 600 м
[Frnb Ns]
+17.2 +15.5 90 +17 +17 1004.9 969.9 +16.3 0.4
03 17.07 СЗ 7-11
{12}
50 км 3/3 600 м
[Cu med, cong]
+22.8 +13.3 55 +26 +28 жарко 1002.5 978.2
06 17.07 СЗ 9-15
{16}
50 км 9/9 600 м
[Cu med, cong]
+19.4 +11.2 59 +20 +20 1003.8 969.1
09 17.07 С 5-10
{17}
50 км в посл. час морось 10/10 600 м
[St]
+11.3 +10.1 92 +9 +9 1008.4 972.5
12 17.07 С 5
{10}
50 км {морось} 10/10 600 м
[Frnb]
+13.4 +9.3 76 +11 +11 1010.3 974.7 +24.1 0.0
15 17.07 С 6-10
{12}
50 км 8/8 600 м
[Sc]
+12.7 +6.8 67 +10 +10 1011.3 975.5
18 17.07 С 6-10
{11}
50 км 6/6 600 м
[Sc]
+11.0 +6.6 74 +8 +8 1012.4 976.3
21 17.07 С 4
{11}
50 км ясно +6.1 +3.5 83 +2 +3 1014.9 978.1
00 18.07 С 6-10
{11}
50 км 10/10 600 м
[Sc]
+6.8 +2.7 75 +2 +2 1015.8 979.1 +4.2
03 18.07 С 6-11
{12}
50 км 3/3 600 м
[Cu med, cong]
+11.7 +1.3 49 +9 +12 1014.9 978.9
06 18.07 СВ 7-12
{14}
50 км 3/3 600 м
[Cu med, cong]
+13.4 0.0 40 +11 +13 1015.2 979.4
09 18.07 С 7-12
{13}
50 км 6/6 600 м
[Cu med, cong]
+13.9 +1.1 42 +12 +12 1016.1 980.3
12 18.07 С 6-12
{14}
50 км 3/3 600 м
[Cu med, cong]
+13.6 -0.7 37 +12 +12 1017.3 981.4 +14.2
15 18.07 С 4
{13}
50 км 3/0
[Ci fib]
+11.4 +1.5 51 +10 +10 1018.4 982.2
18 18.07 С 3 50 км 3/0
[Ci fib]
+7.2 +1.3 66 +5 +5 1020.2 983.3
21 18.07 С 4 50 км 4/0
[Ac trans]
+8.4 +3.8 73 +5 +6 1019.7 983.0
00 19.07 С 4 50 км 3/0
[Ci fib]
+10.6 +3.0 59 +8 +12 1018.6 982.3 +7.0
03 19.07 С 6-11
{12}
50 км 6/6 600 м
[Cu med, cong]
+12.6 +2.3 49 +10 +12 1018.7 982.7
06 19.07 С 5-10
{12}
50 км 3/3 600 м
[Cu med, cong]
+15.4 -0.5 34 +14 +18 1018.7 983.0
09 19.07 С 5
{12}
50 км 3/3 600 м
[Cu med, cong]
+16.2 +0.9 35 +15 +17 1019.4 983.8
12 19.07 СВ 3 50 км ясно +16.0 +2.8 41 +16 +16 1020.9 985.1 +16.8
15 19.07 С 2 50 км ясно +11.5 +2.5 54 +11 +11 1022.4 986.1
18 19.07 С 1 50 км ясно +7.0 +0.7 64 +6 +6 1023.9 986.9
21 19.07 С 2 50 км ясно +7.2 +3.2 76 +5 +6 1024.5 987.5
00 20.07 СВ 3 50 км ясно +14.0 +4.5 53 +13 +18 1023.9 987.8 +5.2
03 20.07 С 3 50 км 5/5 600 м
[Cu med, cong]
+16.4 +2.8 40 +16 +21 1023.9 988.2
06 20.07 СВ 1 50 км 3/3 600 м
[Cu med, cong]
+19.7 +2.8 33 +21 +29 комфорт 1022.4 987.0
09 20.07 СВ 3 50 км ясно +21.0 +1.8 28 +22 +25 комфорт 1021.0 985.8
12 20.07 С 2 50 км 3/0
[Ci fib]
+20.8 +3.4 32 +22 +22 комфорт 1020.3 985.1 +21.2
15 20.07 В 1 50 км ясно +14.2 +5.3 55 +15 +15 1021.7 985.7
18 20.07 В 1 50 км ясно +7.5 +1.6 66 +7 +7 1023.3 986.3
21 20.07 ЮЗ 1 50 км ясно +10.2 +6.1 76 +10 +11 1022.3 985.7
00 21.07 ЮЗ 1 50 км ясно +17.2 +6.7 50 +18 +25 1021.4 985.7 +7.3
03 21.07 СЗ 3 50 км ясно +22.4 +3.0 28 +22 +31 комфорт 1019.8 984.9
06 21.07 З 3 50 км ясно +24.5 +3.9 26 +24 +32 комфорт 1018.1 983.5
09 21.07 З 2 50 км ясно +25.6 +4.6 26 +25 +29 комфорт 1016.8 982.3
12 21.07 С 1 50 км ясно +25.2 +6.6 30 +25 +26 комфорт 1016.6 982.1 +25.8
15 21.07 С 1 50 км ясно +16.2 +7.9 58 +17 +17 1017.9 982.2
18 21.07 С 1 50 км ясно +8.4 +2.7 67 +8 +8 1019.2 982.5
21 21.07 С 2 50 км ясно +13.6 +6.1 60 +13 +14 1018.5 982.6
00 22.07 СВ 1 50 км ясно +20.3 +9.9 51 +23 +29 комфорт 1017.5 982.3 +8.8
03 22.07 СВ 3 20 км дым ясно +24.6 +7.6 34 +25 +33 комфорт 1016.8 982.2
06 22.07 С 2 20 км дым ясно +25.2 +8.3 34 +26 +35 жарко 1016.1 981.5
09 22.07 ЮВ 2 10 км дым ясно +25.5 +9.3 36 +26 +30 жарко 1014.9 980.5
12 22.07 В 2 10 км дым ясно +23.4 +11.1 46 +26 +26 жарко 1014.3 979.7 +25.7
15 22.07 В 1 20 км дым ясно +17.6 +7.3 51 +19 +19 1015.0 979.7
18 22.07 В 1 20 км дым ясно +10.5 +4.8 68 +10 +10 1015.5 979.3
21 22.07 ЮВ 1 20 км дым ясно +14.0 +7.5 65 +14 +15 1015.5 969.7
00 23.07 ЮВ 2 50 км ясно +18.7 +6.9 46 +20 +25 1014.9 979.7 +10.3
03 23.07 Ю 2 50 км ясно +24.9 +6.4 31 +25 +35 комфорт 1013.1 978.7
06 23.07 ЮВ 2 50 км ясно +26.8 +3.9 23 +26 +35 жарко 1011.6 977.4
09 23.07 Ю 1 50 км ясно +27.4 +6.9 27 +27 +31 жарко 1010.5 976.5

 

Местоположение метеостанции Эйк (Якутия, Россия): широта 66.03 долгота 117.40 высота над уровнем моря 304 м.

В архиве по умолчанию представлена погода в Эйке за последнюю неделю. Архивные данные за месяц целиком и за предыдущие месяцы, начиная с января 2011 года, Вы можете получить, выбрав интересующий диапазон дат из раскрывающегося списка и нажав кнопку "Ввод!".


*Определитесь, кто Вы:
робот инопланетянин человек

Внимание! Время в таблицах - всемирное. Для получения местного времени необходимо прибавить поправку, которая равна 9 ч.

Смотрите также архив погоды в соседних городах и на ближайших метеорологических станциях:

Погода в Шелагонцах (Якутия, Россия) (146 км)
Погода в Чумпуруке (Якутия, Россия) (202 км)
Погода в Полярном (Якутия, Россия) (236 км)
Погода в Айхале (Якутия, Россия) (270 км)
Погода в Жиганске (Якутия, Россия) (275 км)
Погода в Хабардино (Якутия, Россия) (278 км)
Погода в Сухане (Якутия, Россия) (291 км)
Погода в Нюрбе (Якутия, Россия) (309 км)
Погода в Верхневилюйске (Якутия, Россия) (316 км)
Погода в Бестяхской Звероферме (Якутия, Россия) (317 км)

Пояснения к столбцам:

Ветер - указаны скорость ветра в м/с - средняя за 10 мин, порывы в срок и между сроками (в фигурных скобках) и направление, откуда дует ветер: С - северный, СВ - северо-восточный, В - восточный, ЮВ - юго-восточный, Ю - южный, ЮЗ - юго-западный, З - западный, СЗ - северо-западный.
Видимость - горизонтальная дальность видимости в метрах или километрах. При видимости от 1 до 10 км при отсутствии осадков обычно наблюдается дымка, при ухудшении видимости до 1 км и менее - туман. В сухую погоду видимость может ухудшаться дымом, пылью или мглою.
Явления - указаны атмосферные явления, наблюдавшиеся в срок или в последний час перед сроком; фигурными скобками обозначены явления, наблюдавшиеся между сроками (за 1-3 часа до срока); квадратными скобками обозначены град или гололедные отложения с указанием их диаметра в мм.
Облачность - указаны через наклонную черту общая и нижняя облачность в баллах и высота нижней границы облаков в метрах; квадратными скобками обозначены формы облаков: Ci - перистые, Cs - перисто-слоистые, Cc - перисто-кучевые, Ac - высококучевые, As - высокослоистые, Sc - слоисто-кучевые, Ns - слоисто-дождевые, Cu - кучевые, Cb - кучево-дождевые. Подробнее классификацию облаков см. в Атласе облаков (PDF).
T - Температура воздуха - температура, измеренная на высоте 2 м над землей.
Td - Температура точки росы - температура, при понижении до которой содержащийся в воздухе водяной пар достигнет насыщения.
f - Относительная влажность воздуха - влажноcть воздуха, измеренная на высоте 2 м над землей.
Te - Эффективная температура - температура, которую ощущает одетый по сезону человек в тени. Характеристика душности погоды. При расчете учитывается влияние влажности воздуха и скорости ветра на теплоощущения человека.
Tes - Эффективная температура на солнце - температура, которую ощущает человек, с поправкой на солнечный нагрев. Характеристика знойности погоды. Зависит от высоты солнца над горизонтом, облачности и скорости ветра. Ночью, в пасмурную погоду, а также при ветре 12 м/с и более поправка равна нулю.
P - Атмосферное давление - приведенное к уровню моря атмосферное давление.
Po - Атмосферное давление - измеренное на уровне метеостанции атмосферное давление.
Tmin - Минимальная температура - минимум температуры воздуха на высоте 2 м над землей.
Tmax - Максимальная температура - максимум температуры воздуха на высоте 2 м над землей.
R - Количество осадков - Количество выпавших осадков за период времени, мм. При наведении курсора мыши на число - период времени, за который выпало указанное количество осадков.
R24 - Количество осадков - Количество выпавших осадков за 24 часа, мм.
S - Снежный покров - Высота снежного покрова, см. При наведении курсора мыши на число - состояние снежного покрова и степень покрытия местности в баллах.